This is the latest recevied weather packets stored in our database for station/object N8BAP. If no packets are shown the sender has not sent any weather packets the latest 10 day(s).
| Time | Temp. | Humidity | Pressure | Rain* | Wind** | Luminosity | Snow |
|---|---|---|---|---|---|---|---|
| 1777822769 | 12.78° C | 52% | 1024.3 hPa | 0 mm | - | 734 W/m² | - |
| 1777822466 | 12.78° C | 53% | 1024 hPa | 0 mm | - | 732 W/m² | - |
| 1777822164 | 12.78° C | 53% | 1024.6 hPa | 0 mm | - | 732 W/m² | - |
| 1777821861 | 12.22° C | 50% | 1024.4 hPa | 0 mm | - | 727 W/m² | - |
| 1777821558 | 12.22° C | 51% | 1024.4 hPa | 0 mm | - | 733 W/m² | - |
| 1777821256 | 12.22° C | 48% | 1024.1 hPa | 0 mm | - | 753 W/m² | - |
| 1777820953 | 12.22° C | 53% | 1024.2 hPa | 0 mm | - | 763 W/m² | - |
| 1777820649 | 12.22° C | 51% | 1024.2 hPa | 0 mm | - | 736 W/m² | - |
| 1777820346 | 11.67° C | 53% | 1024.4 hPa | 0 mm | - | 713 W/m² | - |
| 1777820044 | 11.67° C | 53% | 1024.4 hPa | 0 mm | - | 712 W/m² | - |
| 1777819740 | 12.22° C | 50% | 1024.2 hPa | 0 mm | - | 700 W/m² | - |
| 1777819438 | 11.67° C | 56% | 1024.1 hPa | 0 mm | - | 688 W/m² | - |
| 1777819136 | 11.67° C | 51% | 1024.1 hPa | 0 mm | - | 658 W/m² | - |
| 1777818832 | 11.67° C | 53% | 1024.1 hPa | 0 mm | - | 650 W/m² | - |
| 1777818528 | 11.11° C | 52% | 1024 hPa | 0 mm | - | 622 W/m² | - |
| 1777818226 | 11.11° C | 50% | 1024 hPa | 0 mm | - | 635 W/m² | - |
| 1777817921 | 10.56° C | 55% | 1024.2 hPa | 0 mm | - | 607 W/m² | - |
| 1777817619 | 10.56° C | 58% | 1024 hPa | 0 mm | - | 552 W/m² | - |
| 1777817316 | 10° C | 61% | 1024.3 hPa | 0 mm | - | 546 W/m² | - |
| 1777817013 | 10° C | 58% | 1024.2 hPa | 0 mm | - | 523 W/m² | - |
| 1777816709 | 9.44° C | 60% | 1024.3 hPa | 0 mm | - | 479 W/m² | - |
| 1777816407 | 9.44° C | 58% | 1024.4 hPa | 0 mm | - | 487 W/m² | - |
| 1777816105 | 9.44° C | 62% | 1024.2 hPa | 0 mm | - | 503 W/m² | - |
| 1777815802 | 9.44° C | 61% | 1024.2 hPa | 0 mm | - | 453 W/m² | - |
| 1777815499 | 8.89° C | 61% | 1024.3 hPa | 0 mm | - | 413 W/m² | - |
* Rain latest hour (hover to see other rain measurements)
** Current wind speed in m/s (hover to see current wind gust speed)